Location: Antichan
(42.9728°N, 0.6667°E)
Time: 18:41:58
(UTC+00:00)

ERS-1 Rocket - Pass Details

Date: 15 August 2020
Orbit: 753 x 757 km, 98.5° (Epoch: 20 September)

Event Time Altitude Azimuth Distance (km) Brightness Sun altitude
Exits shadow 21:56:13 57° 236° (SW) 888 3.2 -26.5°
Maximum altitude 21:56:38 59° 259° (W) 869 3.3 -26.5°
Drops below altitude 10° 22:01:37 10° 339° (NNW) 2,288 6.4 -27.0°
Sets 22:03:57 0° 343° (NNW) 3,217 7.4 -27.3°
